Weather History for K06D - January, 2013

Change the Weather History Date:

Friday, January 18, 2013

  Actual Average (KRUG) Record (KRUG)
Temperature  
Mean Temperature 15 °F -  
Max Temperature 24 °F 17 °F 43 °F (1972)
Min Temperature 6 °F -4 °F -36 °F (1950)
Degree Days  
Heating Degree Days 50    
Moisture  
Dew Point 15 °F    
Average Humidity 99    
Maximum Humidity 100    
Minimum Humidity 92    
Precipitation  
Precipitation 0.18 in - - ()
Sea Level Pressure  
Sea Level Pressure 29.71 in    
Wind  
Wind Speed 7 mph (SSE)    
Max Wind Speed 13 mph    
Max Gust Speed -    
Visibility 9 miles    
Events Snow    
Averages and records for this station are not official NWS values.
T = Trace of Precipitation, MM = Missing Value Source: NWS Daily Summary

Daily Weather History Graph

Daily Weather History Graph

Search for Another Location

Airport or City:

Trip Planner

Search our weather history database for the weather conditions in past years. The results will help you decide how hot, cold, wet, or windy it might be!

Date:

Astronomy

Jan. 18, 2013 Rise Set
Actual Time 8:24 AM CST 5:14 PM CST
Civil Twilight 7:48 AM CST 5:49 PM CST
Nautical Twilight 7:09 AM CST 6:29 PM CST
Astronomical Twilight 6:31 AM CST 7:06 PM CST
Moon 11:20 AM CST (1/18) 12:47 AM CST (1/18)
Length of Visible Light 10h 01m
Length of Day
8h 50m
Waxing Crescent, 47% of the Moon is Illuminated
Jan 18
Waxing Crescent
Jan 18
First Quarter
Jan 26
Full
Feb 3
Last Quarter
Feb 10
New

Hourly Weather History & Observations

Time (CST) Temp. Windchill Dew Point Humidity Pressure Visibility Wind Dir Wind Speed Gust Speed Precip Events Conditions
12:15 AM 6.8 °F -7.8 °F 5.0 °F 92% 29.91 in 1.2 mi SSE 10.4 mph - 0.02 in Snow Light Snow
12:35 AM 8.6 °F -5.5 °F 6.8 °F 92% 29.90 in 1.0 mi SSE 10.4 mph - 0.11 in Snow Light Snow
12:55 AM 8.6 °F -5.5 °F 6.8 °F 92% 29.88 in 1.2 mi SSE 10.4 mph - 0.17 in Snow Light Snow
1:15 AM 8.6 °F -5.5 °F 6.8 °F 92% 29.86 in 3.0 mi SSE 10.4 mph - N/A Snow Light Snow
1:35 AM 8.6 °F -6.3 °F 6.8 °F 92% 29.85 in 3.0 mi SSE 11.5 mph - N/A Snow Light Snow
1:55 AM 8.6 °F -5.5 °F 6.8 °F 92% 29.83 in 10.0 mi SSE 10.4 mph - 0.01 in   Overcast
2:15 AM 8.6 °F -6.3 °F 8.6 °F 100% 29.81 in 10.0 mi SSE 11.5 mph - N/A   Overcast
2:35 AM 10.4 °F -3.3 °F 8.6 °F 92% 29.80 in 10.0 mi SSE 10.4 mph - N/A   Overcast
2:55 AM 10.4 °F -1.5 °F 10.4 °F 100% 29.79 in 10.0 mi SSE 8.1 mph - N/A   Overcast
3:15 AM 10.4 °F -2.4 °F 10.4 °F 100% 29.80 in 10.0 mi SSE 9.2 mph - N/A   Mostly Cloudy
3:35 AM 10.4 °F -1.5 °F 10.4 °F 100% 29.79 in 10.0 mi SSE 8.1 mph - N/A   Overcast
3:55 AM 10.4 °F -3.3 °F 10.4 °F 100% 29.76 in 10.0 mi SSE 10.4 mph - N/A   Overcast
4:15 AM 10.4 °F -2.4 °F 10.4 °F 100% 29.74 in 10.0 mi SE 9.2 mph - N/A   Overcast
4:35 AM 10.4 °F -2.4 °F 10.4 °F 100% 29.74 in 10.0 mi SE 9.2 mph - N/A   Overcast
4:55 AM 10.4 °F 0.8 °F 10.4 °F 100% 29.74 in 10.0 mi SSE 5.8 mph - N/A   Overcast
5:15 AM 10.4 °F - 10.4 °F 100% 29.74 in 10.0 mi Calm Calm - N/A Snow Light Snow
5:35 AM 10.4 °F - 10.4 °F 100% 29.74 in 10.0 mi Calm Calm - N/A Snow Light Snow
5:55 AM 12.2 °F 2.9 °F 12.2 °F 100% 29.71 in 10.0 mi SE 5.8 mph - N/A Snow Light Snow
6:15 AM 12.2 °F 2.9 °F 12.2 °F 100% 29.71 in 10.0 mi SSE 5.8 mph - N/A   Overcast
6:35 AM 12.2 °F 4.3 °F 12.2 °F 100% 29.70 in 10.0 mi SE 4.6 mph - N/A   Overcast
6:55 AM 12.2 °F 4.3 °F 12.2 °F 100% 29.69 in 10.0 mi SE 4.6 mph - N/A   Overcast
7:15 AM 14.0 °F 6.5 °F 14.0 °F 100% 29.69 in 10.0 mi SE 4.6 mph - N/A   Overcast
7:35 AM 14.0 °F - 14.0 °F 100% 29.69 in 10.0 mi Calm Calm - N/A   Overcast
7:55 AM 14.0 °F - 14.0 °F 100% 29.71 in 10.0 mi Calm Calm - N/A   Overcast
8:35 AM 14.0 °F 6.5 °F 14.0 °F 100% 29.70 in 10.0 mi South 4.6 mph - N/A   Overcast
8:55 AM 14.0 °F - 14.0 °F 100% 29.71 in 10.0 mi Calm Calm - N/A   Overcast
9:15 AM 14.0 °F - 14.0 °F 100% 29.72 in 10.0 mi Calm Calm - N/A   Overcast
9:35 AM 14.0 °F - 14.0 °F 100% 29.72 in 10.0 mi Calm Calm - N/A   Overcast
9:55 AM 15.8 °F - 15.8 °F 100% 29.73 in 10.0 mi Calm Calm - N/A Snow Light Snow
10:15 AM 15.8 °F 10.2 °F 15.8 °F 100% 29.72 in 10.0 mi East 3.5 mph - N/A Snow Light Snow
10:35 AM 15.8 °F - 15.8 °F 100% 29.72 in 10.0 mi Calm Calm - N/A   Overcast
10:55 AM 17.6 °F - 15.8 °F 93% 29.73 in 10.0 mi Calm Calm - N/A   Overcast
11:15 AM 15.8 °F - 15.8 °F 100% 29.73 in 10.0 mi Calm Calm - N/A   Overcast
11:35 AM 17.6 °F - 17.6 °F 100% 29.72 in 10.0 mi Calm Calm - N/A   Overcast
11:55 AM 17.6 °F 10.7 °F 15.8 °F 93% 29.71 in 10.0 mi ENE 4.6 mph - N/A   Overcast
12:15 PM 17.6 °F - 15.8 °F 93% 29.71 in 10.0 mi Calm Calm - N/A   Overcast
12:35 PM 17.6 °F 12.3 °F 17.6 °F 100% 29.70 in 10.0 mi ESE 3.5 mph - N/A   Overcast
12:55 PM 17.6 °F 12.3 °F 17.6 °F 100% 29.70 in 10.0 mi SE 3.5 mph - N/A   Overcast
1:15 PM 17.6 °F 9.3 °F 17.6 °F 100% 29.70 in 10.0 mi SSE 5.8 mph - N/A   Overcast
1:35 PM 19.4 °F 9.5 °F 17.6 °F 93% 29.68 in 10.0 mi South 8.1 mph - N/A   Overcast
1:55 PM 19.4 °F 7.2 °F 19.4 °F 100% 29.67 in 10.0 mi SSW 11.5 mph - N/A   Overcast
2:15 PM 19.4 °F 7.9 °F 19.4 °F 100% 29.67 in 10.0 mi SSW 10.4 mph - N/A   Mostly Cloudy
2:35 PM 19.4 °F 6.6 °F 19.4 °F 100% 29.67 in 10.0 mi SW 12.7 mph - N/A   Mostly Cloudy
2:55 PM 21.2 °F 10.9 °F 21.2 °F 100% 29.67 in 10.0 mi SW 9.2 mph - N/A   Mostly Cloudy
3:15 PM 23.0 °F 14.7 °F 23.0 °F 100% 29.67 in 10.0 mi SW 6.9 mph - N/A   Mostly Cloudy
3:35 PM 24.8 °F 16.1 °F 23.0 °F 93% 29.66 in 10.0 mi South 8.1 mph - N/A   Scattered Clouds
3:55 PM 23.0 °F 13.1 °F 23.0 °F 100% 29.66 in 10.0 mi SSW 9.2 mph - N/A   Scattered Clouds
4:15 PM 23.0 °F 12.4 °F 23.0 °F 100% 29.67 in 10.0 mi NW 10.4 mph - N/A   Scattered Clouds
4:35 PM 23.0 °F 12.4 °F 23.0 °F 100% 29.67 in 10.0 mi North 10.4 mph - N/A   Mostly Cloudy
4:55 PM 19.4 °F 12.8 °F 19.4 °F 100% 29.67 in 10.0 mi North 4.6 mph - N/A   Overcast
5:15 PM 17.6 °F 9.3 °F 17.6 °F 100% 29.67 in 10.0 mi North 5.8 mph - N/A   Overcast
5:35 PM 17.6 °F - 17.6 °F 100% 29.67 in 10.0 mi Calm Calm - N/A   Overcast
5:55 PM 17.6 °F 9.3 °F 17.6 °F 100% 29.68 in 10.0 mi North 5.8 mph - N/A   Overcast
6:15 PM 17.6 °F 10.7 °F 17.6 °F 100% 29.68 in 10.0 mi NNW 4.6 mph - N/A   Overcast
6:35 PM 17.6 °F 9.3 °F 17.6 °F 100% 29.68 in 10.0 mi NNW 5.8 mph - N/A   Overcast
6:55 PM 17.6 °F 9.3 °F 17.6 °F 100% 29.67 in 10.0 mi North 5.8 mph - N/A   Overcast
7:15 PM 17.6 °F 10.7 °F 17.6 °F 100% 29.67 in 10.0 mi NNE 4.6 mph - N/A   Overcast
7:35 PM 17.6 °F 9.3 °F 17.6 °F 100% 29.67 in 10.0 mi NE 5.8 mph - N/A   Overcast
7:55 PM 15.8 °F 10.2 °F 15.8 °F 100% 29.67 in 10.0 mi North 3.5 mph - N/A   Overcast
8:35 PM 15.8 °F 10.2 °F 15.8 °F 100% 29.66 in 10.0 mi NNE 3.5 mph - N/A   Overcast
8:55 PM 15.8 °F 10.2 °F 15.8 °F 100% 29.64 in 10.0 mi NNE 3.5 mph - N/A   Overcast
9:15 PM 15.8 °F - 15.8 °F 100% 29.65 in 10.0 mi Calm Calm - N/A   Mostly Cloudy
9:35 PM 15.8 °F 8.6 °F 15.8 °F 100% 29.64 in 10.0 mi NNW 4.6 mph - N/A   Mostly Cloudy
9:55 PM 14.0 °F 6.5 °F 14.0 °F 100% 29.63 in 10.0 mi WSW 4.6 mph - N/A   Scattered Clouds
10:15 PM 12.2 °F 4.3 °F 12.2 °F 100% 29.63 in 10.0 mi SW 4.6 mph - N/A   Mostly Cloudy
10:35 PM 14.0 °F 8.2 °F 14.0 °F 100% 29.62 in 10.0 mi SSW 3.5 mph - N/A   Overcast
10:55 PM 12.2 °F - 12.2 °F 100% 29.63 in 10.0 mi Calm Calm - N/A   Overcast
11:15 PM 12.2 °F 0.7 °F 12.2 °F 100% 29.61 in 1.0 mi South 8.1 mph - N/A   Overcast
11:35 PM 15.8 °F 5.1 °F 15.8 °F 100% 29.60 in 0.8 mi South 8.1 mph - N/A   Overcast
11:55 PM 15.8 °F 3.4 °F 15.8 °F 100% 29.60 in 1.2 mi South 10.4 mph - N/A   Overcast